Preview of NWS' New Version of Forecast
This preview is not operational and should not be used for support decisions.

Regional Weather Roundup (RWR)

Issued by National Weather Service (NWS)

                            
000
ASUS45 KCYS 211310
RWRWY 

WYOMING REGIONAL WEATHER ROUNDUP
NATIONAL WEATHER SERVICE CHEYENNE WY
600 AM MST THU FEB 21 2019

NOTE:  "FAIR" INDICATES FEW OR NO CLOUDS BELOW 12,000 FEET
WITH NO SIGNIFICANT WEATHER AND/OR OBSTRUCTIONS TO VISIBILITY.

WYZ001-211400-
...YELLOWSTONE NATIONAL PARK...
  
CITY           SKY/WX    TMP DP  RH WIND       PRES   REMARKS
LK YELLOWSTONE   N/A     -9 -14  78 CALM      29.67R                  
W YELLOWSTONE  NOT AVBL                                               

$$
WYZ002>013-054>058-071-098>099-211400-
...NORTHERN WYOMING...
  
CITY           SKY/WX    TMP DP  RH WIND       PRES   REMARKS
JACKSON        CLEAR     -5 -10  79 NE7       29.71  WCI -19          
CODY           PTCLDY     9   6  88 CALM      29.85R                  
GREYBULL       MOCLDY    11   6  81 NW7       29.88R WCI   0          
WORLAND        MOCLDY    10   7  87 SE5       29.86R WCI   2          
SHERIDAN       CLOUDY    14  11  87 S3        29.91R                  
BUFFALO        MOCLDY    11   7  84 N8        29.83S WCI  -1          
GILLETTE       CLEAR     -7  -9  91 CALM      29.87R                  
HULETT         FAIR       1  -4  78 MISG      29.89R                  
NEWCASTLE        N/A      1  -4  78 N7        29.89S WCI -11          

$$
WYZ014>020-022>026-101>103-211400-
...CENTRAL WYOMING...
  
CITY           SKY/WX    TMP DP  RH WIND       PRES   REMARKS
BIG PINEY      CLOUDY    -1  -6  79 CALM      29.66R                  
PINEDALE       MOCLDY   -15 -22  70 NW6       29.67S WCI -29          
DUBOIS         CLOUDY    -4  -9  77 NW9       29.67R HAZE    WCI -20  
LANDER         CLOUDY    11   0  61 NW6       29.76R WCI   1          
RIVERTON       MOCLDY     9   2  73 NE7       29.77R WCI  -2          
CASPER         MOCLDY     2  -2  83 N6        29.78R WCI  -9          
DOUGLAS        PTCLDY     4   1  88 NE5       29.82R WCI  -5          

$$
WYZ021-027>030-104>119-211400-
...SOUTHERN WYOMING...
  
CITY           SKY/WX    TMP DP  RH WIND       PRES   REMARKS
EVANSTON       CLOUDY     4  -1  80 E14       29.58R WCI -14          
KEMMERER       NOT AVBL                                               
FORT BRIDGER   LGT SNOW   4   2  92 NE6       29.64R WCI  -7          
ROCK SPRINGS   LGT SNOW   6   3  87 NE10      29.63R FOG     WCI  -9  
DIXON          CLOUDY    13   4  66 NE9       29.66S WCI   1          
RAWLINS        CLOUDY     9   5  84 NE5       29.67R WCI   1          
SARATOGA       FAIR       7   1  78 CALM      29.65S                  
LARAMIE        PTCLDY     5   0  79 S14       29.65R WCI -12          
CHEYENNE       CLEAR      8   2  76 NW5       29.74R WCI   0          
TORRINGTON     CLOUDY    11   5  77 CALM      29.86R                  
PINE BLUFFS    FAIR       5   0  78 MISG      29.79F                  

$$
  

000
ASUS45 KCYS 211310
RWRWY 

WYOMING REGIONAL WEATHER ROUNDUP
NATIONAL WEATHER SERVICE CHEYENNE WY
600 AM MST THU FEB 21 2019

NOTE:  "FAIR" INDICATES FEW OR NO CLOUDS BELOW 12,000 FEET
WITH NO SIGNIFICANT WEATHER AND/OR OBSTRUCTIONS TO VISIBILITY.

WYZ001-211400-
YELLOWSTONE NATIONAL PARK
  
CITY           SKY/WX    TMP DP  RH WIND       PRES   REMARKS
LK YELLOWSTONE   N/A     -9 -14  78 CALM      29.67R                  
W YELLOWSTONE  NOT AVBL                                               

$$
WYZ002>013-054>058-071-098>099-211400-
NORTHERN WYOMING
  
CITY           SKY/WX    TMP DP  RH WIND       PRES   REMARKS
JACKSON        FAIR      -5 -10  79 NE7       29.71  WCI -19          
CODY           FAIR       9   6  88 CALM      29.85R                  
GREYBULL       MOCLDY    11   6  81 NW7       29.88R WCI   0          
WORLAND        MOCLDY    10   7  87 SE5       29.86R WCI   2          
SHERIDAN       CLOUDY    14  11  87 S3        29.91R                  
BUFFALO        MOCLDY    11   7  84 N8        29.83S WCI  -1          
GILLETTE       FAIR      -7  -9  91 CALM      29.87R                  
HULETT         FAIR       1  -4  78 MISG      29.89                   
NEWCASTLE        N/A      1  -4  78 N7        29.89  WCI -11          

$$
WYZ014>020-022>026-101>103-211400-
CENTRAL WYOMING
  
CITY           SKY/WX    TMP DP  RH WIND       PRES   REMARKS
BIG PINEY      CLOUDY    -1  -6  79 CALM      29.66R                  
PINEDALE       FAIR     -15 -22  70 NW6       29.67  WCI -29          
DUBOIS         CLOUDY    -4  -9  77 NW9       29.67  HAZE    WCI -20  
LANDER         CLOUDY    11   0  61 NW6       29.76R WCI   1          
RIVERTON       MOCLDY     9   2  73 NE7       29.77R WCI  -2          
CASPER         FAIR       2  -2  83 N6        29.78R WCI  -9          
DOUGLAS        FAIR       4   1  88 NE5       29.82R WCI  -5          

$$
WYZ021-027>030-104>119-211400-
SOUTHERN WYOMING
  
CITY           SKY/WX    TMP DP  RH WIND       PRES   REMARKS
EVANSTON       CLOUDY     4  -1  80 E14       29.58R WCI -14          
ROCK SPRINGS   LGT SNOW   6   3  87 NE10      29.63R FOG     WCI  -9  
DIXON          CLOUDY    13   4  66 NE9       29.66S WCI   1          
RAWLINS        CLOUDY     9   5  84 NE5       29.67R WCI   1          
SARATOGA       FAIR       7   1  78 CALM      29.65S                  
LARAMIE        FAIR       5   0  79 S14       29.65R WCI -12          
CHEYENNE       FAIR       8   2  76 NW5       29.74R WCI   0          
TORRINGTON     CLOUDY    11   5  77 CALM      29.86R                  
PINE BLUFFS    FAIR       5   0  78 MISG      29.79F                  

$$